Simultaneous Nadir Overpasses (SNOs) Predictions

Prediction of SNOs between LANDSAT-8 and METOP-A Satellite Orbit:

Table of predicted SNOs for the next 14.0 days since TLE Epoch: 7/26/2014
Index Date (LANDSAT-8) Time (LANDSAT-8) Lat,Lon (LANDSAT-8) SZA (LANDSAT-8 ) Date (METOP-A) Time (METOP-A) Lat,Lon (METOP-A) SZA (METOP-A ) Distance(km) Time Diff (sec)
1 07/26/2014 10:55:35 -80.59,-130.69 117.37 07/26/2014 10:54:21 -80.77,-131.27 117.30 22.09 74
2 07/26/2014 11:44:42 81.11, 43.59 63.69 07/26/2014 11:44:41 81.10, 43.46 63.67 2.32 1
3 07/26/2014 12:34:08 -81.13,-148.48 116.26 07/26/2014 12:35:20 -81.13,-148.38 116.22 1.90 72
4 07/29/2014 06:29:34 -81.10, -57.76 115.70 07/29/2014 06:28:26 -81.10, -57.68 115.72 1.38 68
5 07/29/2014 07:19:00 81.11, 109.99 64.33 07/29/2014 07:19:05 81.11, 110.15 64.35 2.94 5
6 08/01/2014 02:03:53 -81.09, 8.50 115.04 08/01/2014 02:02:50 -81.09, 8.63 115.05 2.38 63
7 08/01/2014 02:53:18 81.12, 176.60 65.04 08/01/2014 02:53:29 81.11, 176.43 65.02 3.03 11
8 08/03/2014 21:38:14 -81.09, 74.98 114.30 08/03/2014 21:37:15 -81.09, 74.92 114.34 1.10 59
9 08/03/2014 22:27:39 81.12,-116.93 65.78 08/03/2014 22:27:53 81.12,-116.94 65.78 0.44 14
10 08/06/2014 17:12:37 -81.09, 141.32 113.55 08/06/2014 17:11:40 -81.08, 141.18 113.59 2.50 57




NCC Satellite Simultaneous Nadir Overpasses (SNOs) Prediction Service
